Humboldt, Iowa, United States (50548)
Lat: 42.72N, Lon: 94.22W
Wx Zone: IAZ024
Local Info
Past Weather Observations for Thursday, August 28, 2014

NOTE: This archive is for the closest National Weather Service station to Humboldt. Information may differ from the station used for current weather conditions.

Click here for Long-term Archive

Time Weather Temperature Dewpoint Humidity Pressure Winds Precip Visibility
23:55
Overcast
70°F / 21°C 66°F / 19°C 88% 29.92 in
(1013 mb)
S 9.2 mph
(S 15 kph)
0.03 in
(0.76 mm)
10SM
23:35
Overcast
70°F / 21°C 68°F / 20°C 94% 29.92 in
(1013 mb)
SSE 11.5 mph
(SSE 19 kph)
0.02 in
(0.51 mm)
10SM
23:15
Overcast
70°F / 21°C 70°F / 21°C 100% 29.89 in
(1012 mb)
S 12.7 mph
(S 20 kph)
0.01 in
(0.25 mm)
10SM
22:55
Overcast
72°F / 22°C 70°F / 21°C 94% 29.89 in
(1012 mb)
SSE 9.2 mph
(SSE 15 kph)
0.06 in
(1.52 mm)
10SM
22:35
Overcast
72°F / 22°C 70°F / 21°C 94% 29.89 in
(1012 mb)
SSE 8.1 mph
(SSE 13 kph)
0.05 in
(1.27 mm)
10SM
22:15
Overcast
72°F / 22°C 70°F / 21°C 94% 29.92 in
(1013 mb)
SSE 8.1 mph
(SSE 13 kph)
0.03 in
(0.76 mm)
8SM
21:55
Overcast
72°F / 22°C 70°F / 21°C 94% 29.92 in
(1013 mb)
S 10.4 mph
(S 17 kph)
0.05 in
(1.27 mm)
8SM
21:35
Overcast
Thunder Storms
72°F / 22°C 70°F / 21°C 94% 29.92 in
(1013 mb)
S 8.1 mph
(S 13 kph)
0.03 in
(0.76 mm)
7SM
21:15
Overcast
72°F / 22°C 70°F / 21°C 94% 29.89 in
(1012 mb)
SSE 10.4 mph
(SSE 17 kph)
- 7SM
20:55
Mostly Cloudy
72°F / 22°C 70°F / 21°C 94% 29.92 in
(1013 mb)
SSE 8.1 mph
(SSE 13 kph)
- 10SM
20:35
Partly Cloudy
73°F / 23°C 70°F / 21°C 89% 29.92 in
(1013 mb)
SE 8.1 mph
(SE 13 kph)
- 10SM
20:15
Partly Cloudy
73°F / 23°C 70°F / 21°C 89% 29.89 in
(1012 mb)
SSE 5.8 mph
(SSE 9 kph)
- 10SM
19:55
Mostly Cloudy
72°F / 22°C 70°F / 21°C 94% 29.92 in
(1013 mb)
SE 5.8 mph
(SE 9 kph)
- 10SM
19:35
Partly Cloudy
72°F / 22°C 70°F / 21°C 94% 29.89 in
(1012 mb)
SE 5.8 mph
(SE 9 kph)
- 10SM
19:15
Partly Cloudy
72°F / 22°C 70°F / 21°C 94% 29.89 in
(1012 mb)
SE 4.6 mph
(SE 7 kph)
- 10SM
18:55
Clear
73°F / 23°C 70°F / 21°C 89% 29.89 in
(1012 mb)
SE 5.8 mph
(SE 9 kph)
- 10SM
18:35
Clear
73°F / 23°C 70°F / 21°C 89% 29.89 in
(1012 mb)
SE 5.8 mph
(SE 9 kph)
- 10SM
18:15
Partly Cloudy
73°F / 23°C 70°F / 21°C 89% 29.89 in
(1012 mb)
SE 5.8 mph
(SE 9 kph)
- 10SM
17:55
Mostly Cloudy
75°F / 24°C 70°F / 21°C 83% 29.92 in
(1013 mb)
SE 6.9 mph
(SE 11 kph)
- 10SM
17:35
Overcast
75°F / 24°C 70°F / 21°C 83% 29.92 in
(1013 mb)
SSE 5.8 mph
(SSE 9 kph)
- 10SM
17:15
Overcast
75°F / 24°C 70°F / 21°C 83% 29.92 in
(1013 mb)
SSE 6.9 mph
(SSE 11 kph)
- 10SM
16:55
Overcast
73°F / 23°C 70°F / 21°C 89% 29.92 in
(1013 mb)
S 4.6 mph
(S 7 kph)
- 10SM
16:35
Mostly Cloudy
75°F / 24°C 70°F / 21°C 83% 29.92 in
(1013 mb)
SSE 6.9 mph
(SSE 11 kph)
- 10SM
16:15
Mostly Cloudy
73°F / 23°C 70°F / 21°C 89% 29.92 in
(1013 mb)
SSE 8.1 mph
(SSE 13 kph)
- 10SM
15:55
Mostly Cloudy
73°F / 23°C 70°F / 21°C 89% 29.92 in
(1013 mb)
SSE 5.8 mph
(SSE 9 kph)
- 10SM
15:35
Mostly Cloudy
73°F / 23°C 70°F / 21°C 89% 29.92 in
(1013 mb)
SSE 6.9 mph
(SSE 11 kph)
- 10SM
15:15
Overcast
73°F / 23°C 70°F / 21°C 89% 29.92 in
(1013 mb)
S 8.1 mph
(S 13 kph)
- 10SM
14:55
Overcast
73°F / 23°C 70°F / 21°C 89% 29.95 in
(1014 mb)
S 6.9 mph
(S 11 kph)
- 10SM
14:35
Mostly Cloudy
73°F / 23°C 70°F / 21°C 89% 29.95 in
(1014 mb)
SSE 5.8 mph
(SSE 9 kph)
- 10SM
14:15
Mostly Cloudy
73°F / 23°C 70°F / 21°C 89% 29.95 in
(1014 mb)
SSE 5.8 mph
(SSE 9 kph)
- 10SM
13:55
Overcast
72°F / 22°C 70°F / 21°C 94% 29.95 in
(1014 mb)
S 5.8 mph
(S 9 kph)
- 10SM
13:35
Overcast
72°F / 22°C 70°F / 21°C 94% 29.95 in
(1014 mb)
SSE 6.9 mph
(SSE 11 kph)
- 10SM
13:15
Overcast
72°F / 22°C 70°F / 21°C 94% 29.95 in
(1014 mb)
SSE 8.1 mph
(SSE 13 kph)
- 10SM
12:55
Overcast
72°F / 22°C 70°F / 21°C 94% 29.95 in
(1014 mb)
SSE 8.1 mph
(SSE 13 kph)
0.01 in
(0.25 mm)
10SM
12:35
Overcast
70°F / 21°C 66°F / 19°C 88% 29.95 in
(1014 mb)
SSE 5.8 mph
(SSE 9 kph)
0.01 in
(0.25 mm)
10SM
12:15
Overcast
70°F / 21°C 66°F / 19°C 88% 29.95 in
(1014 mb)
S 8.1 mph
(S 13 kph)
- 10SM
11:55
Overcast
70°F / 21°C 66°F / 19°C 88% 29.98 in
(1015 mb)
S 5.8 mph
(S 9 kph)
0.04 in
(1.02 mm)
10SM
11:35
Overcast
70°F / 21°C 66°F / 19°C 88% 29.98 in
(1015 mb)
S 6.9 mph
(S 11 kph)
- 10SM
11:15
Mostly Cloudy
70°F / 21°C 66°F / 19°C 88% 29.98 in
(1015 mb)
SE 13.8 mph
(SE 22 kph)
- 10SM
10:55
Overcast
68°F / 20°C 66°F / 19°C 94% 29.98 in
(1015 mb)
SE 11.5 mph
(SE 19 kph)
- 10SM
10:35
Overcast
68°F / 20°C 66°F / 19°C 94% 29.98 in
(1015 mb)
SE 11.5 mph
(SE 19 kph)
- 10SM
10:15
Overcast
66°F / 19°C 64°F / 18°C 94% 30.01 in
(1016 mb)
SE 12.7 mph
(SE 20 kph)
- 10SM
09:55
Overcast
66°F / 19°C 64°F / 18°C 94% 30.01 in
(1016 mb)
SE 12.7 mph
(SE 20 kph)
0.01 in
(0.25 mm)
8SM
09:35
Overcast
66°F / 19°C 64°F / 18°C 94% 30.01 in
(1016 mb)
SE 10.4 mph
(SE 17 kph)
0.01 in
(0.25 mm)
5SM
09:15
Overcast
64°F / 18°C 63°F / 17°C 94% 30.01 in
(1016 mb)
SE 9.2 mph
(SE 15 kph)
0.01 in
(0.25 mm)
10SM
08:55
Overcast
64°F / 18°C 63°F / 17°C 94% 30.01 in
(1016 mb)
SE 12.7 mph
(SE 20 kph)
0.08 in
(2.03 mm)
7SM
08:35
Overcast
64°F / 18°C 63°F / 17°C 94% 30.01 in
(1016 mb)
SE 12.7 mph
(SE 20 kph)
0.06 in
(1.52 mm)
7SM
08:15
Overcast
64°F / 18°C 63°F / 17°C 94% 30.04 in
(1017 mb)
SE 10.4 mph
(SE 17 kph)
0.03 in
(0.76 mm)
5SM
07:55
Overcast
64°F / 18°C 63°F / 17°C 94% 30.04 in
(1017 mb)
SE 6.9 mph
(SE 11 kph)
0.17 in
(4.32 mm)
5SM
07:35
Mostly Cloudy
64°F / 18°C 63°F / 17°C 94% 30.04 in
(1017 mb)
SE 6.9 mph
(SE 11 kph)
0.11 in
(2.79 mm)
5SM
07:15
Overcast
64°F / 18°C 63°F / 17°C 94% 30.04 in
(1017 mb)
SE 10.4 mph
(SE 17 kph)
0.05 in
(1.27 mm)
5SM
06:55
Mostly Cloudy
64°F / 18°C 63°F / 17°C 94% 30.04 in
(1017 mb)
SE 6.9 mph
(SE 11 kph)
0.11 in
(2.79 mm)
5SM
06:35
Overcast
64°F / 18°C 63°F / 17°C 94% 30.04 in
(1017 mb)
SE 8.1 mph
(SE 13 kph)
0.06 in
(1.52 mm)
6SM
06:15
Overcast
64°F / 18°C 63°F / 17°C 94% 30.06 in
(1018 mb)
SE 5.8 mph
(SE 9 kph)
0.02 in
(0.51 mm)
7SM
05:55
Overcast
64°F / 18°C 63°F / 17°C 94% 30.06 in
(1018 mb)
SE 8.1 mph
(SE 13 kph)
0.04 in
(1.02 mm)
9SM
05:35
Overcast
64°F / 18°C 63°F / 17°C 94% 30.04 in
(1017 mb)
SE 10.4 mph
(SE 17 kph)
0.03 in
(0.76 mm)
7SM
05:15
Overcast
64°F / 18°C 63°F / 17°C 94% 30.06 in
(1018 mb)
SE 8.1 mph
(SE 13 kph)
0.01 in
(0.25 mm)
7SM
04:55
Overcast
64°F / 18°C 63°F / 17°C 94% 30.06 in
(1018 mb)
SE 5.8 mph
(SE 9 kph)
0.01 in
(0.25 mm)
5SM
04:35
Overcast
64°F / 18°C 63°F / 17°C 94% 30.06 in
(1018 mb)
SE 6.9 mph
(SE 11 kph)
- 10SM
04:15
Overcast
64°F / 18°C 63°F / 17°C 94% 30.06 in
(1018 mb)
SE 4.6 mph
(SE 7 kph)
- 10SM
03:55
Overcast
64°F / 18°C 63°F / 17°C 94% 30.06 in
(1018 mb)
ESE 5.8 mph
(ESE 9 kph)
- 10SM
03:35
Overcast
64°F / 18°C 63°F / 17°C 94% 30.06 in
(1018 mb)
SE 5.8 mph
(SE 9 kph)
- 10SM
03:15
Mostly Cloudy
64°F / 18°C 63°F / 17°C 94% 30.06 in
(1018 mb)
ESE 6.9 mph
(ESE 11 kph)
- 10SM
02:55
Partly Cloudy
66°F / 19°C 63°F / 17°C 88% 30.06 in
(1018 mb)
ESE 9.2 mph
(ESE 15 kph)
- 10SM
02:35
Mostly Cloudy
66°F / 19°C 63°F / 17°C 88% 30.06 in
(1018 mb)
E 8.1 mph
(E 13 kph)
- 10SM
02:15
Overcast
66°F / 19°C 63°F / 17°C 88% 30.06 in
(1018 mb)
E 8.1 mph
(E 13 kph)
- 10SM
01:55
Overcast
66°F / 19°C 63°F / 17°C 88% 30.09 in
(1019 mb)
E 6.9 mph
(E 11 kph)
- 10SM
01:35
Overcast
66°F / 19°C 63°F / 17°C 88% 30.09 in
(1019 mb)
SE 5.8 mph
(SE 9 kph)
- 10SM
01:15
Mostly Cloudy
66°F / 19°C 63°F / 17°C 88% 30.09 in
(1019 mb)
ESE 5.8 mph
(ESE 9 kph)
- 10SM
00:55
Overcast
66°F / 19°C 63°F / 17°C 88% 30.09 in
(1019 mb)
SE 4.6 mph
(SE 7 kph)
- 10SM
00:35
Overcast
66°F / 19°C 63°F / 17°C 88% 30.09 in
(1019 mb)
SE 4.6 mph
(SE 7 kph)
- 10SM
00:15
Overcast
66°F / 19°C 63°F / 17°C 88% 30.09 in
(1019 mb)
SE 5.8 mph
(SE 9 kph)
- 10SM
Time Weather Temperature Dewpoint Humidity Pressure Winds Precip Visibility


Weather for websites

WeatherForYou.com, LLC is not responsible for any damages or problems caused by this service. Current weather conditions are obtained from the closest station including government and personal stations which may have varying degrees of accuracy. Weather forecasts are derived from the NOAA NDFD. Like all things, this site belongs to Jesus Christ... He just trusts me to maintain it. If you have any questions or comments email webmaster@weatherforyou.com

Copyright © 2014, WeatherForYou.com LLC. All rights reserved.